Aérodrome :
LOGIN :

S'inscrire | Disclaimer

   EN    FR    IT 

 










Légende :    VFR   VFR Marginal   IFR   IFR Intensif   IFR Très Intensif
Visi : 
Plafond : 
>= 8 km
>= 3000ft
5 à 8 km
1000 à 3000 ft
1500m à 5 km
500 à 1000 ft
800 à 1500m
200 à 500 ft
< 800m
< 200 ft
Symboles :   Orages  Brouillard  Fortes neiges  Fortes précipitations  Vent > 20 kt
SIGMETs :   Divers  Orages  Givrage  Turbulence  Onde Orograph.  Cendres Volcan.







- Altitude de l'aérodrome : 74 ft
- Code IATA : MRS
- Voir les cartes d'approche


LFML - Marseille / Marignane

DERNIER METAR :
  • 192130Z AUTO 13005KT CAVOK 24/15 Q1018 NOSIG

METARs EXPIRÉS :
  • 192100Z AUTO 14005KT CAVOK 25/15 Q1018 NOSIG
  • 192030Z AUTO 16003KT CAVOK 25/15 Q1018 NOSIG
  • 192000Z AUTO 15004KT CAVOK 26/15 Q1018 NOSIG
  • 191930Z AUTO 15006KT 9999 FEW018 26/15 Q1017 NOSIG
  • 191900Z AUTO 19004KT 120V210 CAVOK 27/15 Q1017 NOSIG

TAF TAF LFML
Valide du 19 à 21h jusqu'au 21 à 03h UTC


192000Z 1921/2103 VRB03KT CAVOK
TEMPO 2009/2016 23011KT TX31/2013Z TN19/2003Z
ATIS : +33 4 42 31 15 15
Pas de NOTAMs connus pour ce terrain.



MET'MAP, la Météo Aéronautique d'un coup d'oeil ! - Copyright ORBIFLY Décembre 2007 - Disclaimer

ORBIFLY MET'MAP TEAM :

Programmation & Développement : Alexandra Zaïnal
Conception & Développement : Baudouin d'Aumeries
Co-Programmation & Développement : Marc-Olivier Méhu
Soutien technique & logistique : Manuel Goepfert

Contact : metmap@orbifly.com




SOURCES & CREDITS :

   NOAA